COSMOS 2460 (GLONASS)

Satellite information

Favourite Embed

Satellite Type and Status

PAYLOADIN ORBIT

Key statistics

Satellite COSMOS 2460 (GLONASS) at a glance.

Uptime

5720

Days in orbit

Revolutions

≈ 2.1

Per day

Orbit

MEO

Medium Earth Orbit

Inclination

65.6

Latest

Satellite identification and parameters

Extended collection of information and parameters for COSMOS 2460 (GLONASS).

Object identification

Identified? True

Debris? False

Object name: COSMOS 2460 (GLONASS)

International designator: 2010-007C

Object number (NORAD): 36402

Object ID (CCSDS): 36402

Country: COMMONWEALTH OF INDEPENDENT STATES (CIS)

Current information (Y/N): Y

RCS size: LARGE

Orbital parameters

Period: 675.719 minutes

Inclination: 65.5545 deg

SMA: 25507.681 km

Apoapsis: 19137.066 km

Periapsis: 19122.026 km

RAAN: 322.3706 deg

Eccentricy: 0.00029481

Argument of periapsis: 247.8903 deg

Mean anomaly: 121.1542 deg

Mean motion: 2.13106305 rev/day

Mean motion (dot): -0.00000026 rev/day2

B* drag term: 0.0 1/REarth

Two-line elements (TLE)

Creation date: Oct. 27, 2025, 2:46 a.m.

Reference frame: TEME

Reference center: EARTH

Epoch: Oct. 26, 2025, 11:26 a.m. UTC

TLE line 0: 0 COSMOS 2460 (GLONASS)

TLE line 1: 1 36402U 10007C 25299.47681872 -.00000026 00000-0 00000-0 0 9992

TLE line 2: 2 36402 65.5545 322.3706 0002948 247.8903 121.1542 2.13106305121759

Live tracking on map

Real-time ground track for satellite COSMOS 2460 (GLONASS).

In-orbit conjunctions

There are no conjunctions computed for COSMOS 2460 (GLONASS), at the moment. Check back to stay up to date, as we update our databases every day.

Go to all conjunctions

Associated space launch

Glonass-M, also known as Uragan-M, are the second generation of Uragan satellite design used for GLONASS satellite navigation system. GLONASS is a Russian space-based navigation system comparable to the similar GPS and Galileo systems. This generation improves on accuracy, power consumption and design life. Each satellite weighs 1415 kg, is equipped with 12 L-band antennas, and has an operational lifetime of 7 years.

COSMOS 2460 (GLONASS) was lifted into orbit during the mission ‘Proton-M/DM-2 Enhanced | 3 x Glonass-M (Kosmos 2459, Kosmos 2460, Kosmos 2461)’, on board a Proton-M space rocket.

The launch took place on March 1, 2010, 9:19 p.m. from 81/24 (81P).

For more information about the launch, click the button.

Launch to space Proton-M/DM-2 Enhanced | 3 x Glonass-M (Kosmos 2459, Kosmos 2460, Kosmos 2461)
Proton-M/DM-2 Enhanced | 3 x Glonass-M (Kosmos 2459, Kosmos 2460, Kosmos 2461)

Agency: N/A

Status: Launch Successful

Launch date: March 1, 2010, 9:19 p.m. UTC

Rocket: Proton-M

Launch pad: 81/24 (81P)

Location: Baikonur Cosmodrome, Republic of Kazakhstan

...

Latest news about this satellite

There are no fresh news available about this satellite. Check back as we update our databases every day.


Newsletter sign-up

Weekly statistics, charts and insights to help you stay on top of the space industry.